www.pogodaiklimat.ru

Погода и климат >> Архив погоды >> Антарктида >> Syowa


ПОГОДА в Syowa

  • Прогноз погоды в Syowa
  • Монитор погоды в Syowa
  • Климат города

АРХИВ ПОГОДЫ в Syowa

Время (UTC), дата Ветер
(напр.,м/с)
 
Видим.   Явления Облачность Т
(С)
Тd
(С)
f
(%)
Тe
(С)
Тes
(С)
Комфортность P
(гПа)
Po
(гПа)
Тmin
(С)
Tmax
(С)
R
(мм)
R24
(мм)
S
(см)
21 14.11 СВ 4 20 км {снег} 9/9
[Sc]
-8.1 -10.9 80 -15 -15 984.4 981.6
00 15.11 С 5 10 км слабый снег 9/9
[Sc]
-8.2 -10.3 85 -16 -16 984.5 981.7 -9.1 -4.7
03 15.11 З 5 1500 м слабый снег 10/10
[Sc]
-9.0 -10.6 88 -17 -17 984.5 981.7
06 15.11 С 3 4000 м слабый снег 9/9
[Sc]
-8.5 -10.4 86 -14 -14 984.5 981.7
09 15.11 С 3 5000 м слабый снег 9/1
[Sc Ac As Cs]
-7.4 -10.1 81 -13 -8 984.0 981.3
12 15.11 СВ 7 20 км {снег} 9/1
[Sc Ac As Ci sp]
-6.2 -8.8 82 -15 -14 984.0 981.3 -9.2 -6.0
15 15.11 СВ 5 30 км в посл. час снег 9/0
[Ac As Ci sp]
-7.3 -9.2 86 -15 -13 984.6 981.9
18 15.11 Ю 3 5000 м слабый снег 10/9
[Sc Ac As]
-7.3 -9.2 86 -13 -13 985.4 982.7
21 15.11 С 2 10 км в посл. час снег 10/9
[Sc Ac As]
-7.1 -9.6 82 -12 -12 985.3 982.6
00 16.11 СВ 10 5000 м слабый снег 10/10
[Sc]
-6.9 -8.3 90 -17 -17 984.3 981.6 -7.5 -6.3
03 16.11 СВ 10 5000 м слабый снег 9/4
[Sc Ac As Ci sp]
-6.5 -7.7 91 -17 -17 984.3 981.6
06 16.11 СВ 13 2000 м метель {снег} 9/9
[Sc]
-6.8 -8.2 90 -18 -18 984.9 982.2
09 16.11 СВ 11 10 км метель 9/9
[Sc]
-5.5 -7.2 88 -16 -16 985.4 982.7
12 16.11 В 5 10 км 9/9
[Sc Ac As]
-4.3 -6.4 85 -11 -11 985.5 982.8 -7.0 -4.1
15 16.11 СВ 2 5000 м слабый снег 9/9
[Sc]
-4.4 -6.1 88 -9 -8 983.6 980.9
18 16.11 СВ 13 8000 м метель {снег} 9/9
[Sc]
-3.3 -5.3 86 -13 -13 980.2 977.5
21 16.11 В 20 800 м снег 10/10
[Sc]
-3.2 -4.0 94 -15 -15 976.2 973.5
00 17.11 СВ 23 200 м снег ?/? -2.9 -3.3 97 -15 -15 972.1 969.4 -4.5 -2.9
03 17.11 СВ 25 100 м сильный снег {метель} ?/? -3.0 -3.4 97 -16 -16 969.8 967.1
06 17.11 СВ 28 <100 м сильный снег {метель} ?/? -3.4 -3.9 96 -17 -17 969.5 966.8
09 17.11 СВ 27 <100 м сильный снег {метель} ?/? -3.7 -4.2 96 -17 -17 971.1 968.4
12 17.11 СВ 27 <100 м сильный снег {метель} ?/? -3.3 -3.8 96 -17 -17 971.7 969.0 -3.8 -2.8
15 17.11 СВ 23 100 м сильный снег {метель} ?/? -3.5 -4.0 96 -16 -16 973.6 970.9
18 17.11 СВ 12 3000 м слабый снег {метель} 10/10
[Sc]
-3.7 -4.4 95 -14 -14 977.2 974.5
21 17.11 СВ 4 10 км слабый снег 9/9
[Sc]
-3.6 -4.8 91 -10 -10 978.7 976.0
00 18.11 СВ 5 5000 м слабый снег 10/10
[Sc]
-3.7 -4.8 92 -10 -10 980.3 977.6 -3.8 -3.2
03 18.11 СВ 5 5000 м слабый снег 10/10
[Sc]
-3.3 -4.8 89 -10 -10 980.5 977.8
06 18.11 СВ 6 15 км слабый снег 10/10
[Sc]
-3.0 -5.1 85 -10 -10 980.1 977.4
09 18.11 ЮВ 3 20 км слабый снег 9/6
[Sc Ac As]
-1.6 -3.6 86 -6 -4 979.5 976.8
12 18.11 ЮЗ 3 3000 м слабый снег 9/9
[Sc]
-1.7 -3.6 87 -7 -6 978.2 975.5 -3.7 -1.0
15 18.11 Ю 4 8000 м слабый снег 10/10
[Sc]
-2.4 -3.7 91 -8 -8 977.5 974.8
18 18.11 СЗ 4 3000 м слабый снег 9/9
[Sc]
-4.4 -5.2 94 -11 -11 977.5 974.8
21 18.11 С 3 5000 м слабый снег 10/10
[Sc]
-5.0 -5.5 96 -10 -10 977.6 974.9
00 19.11 ЮЗ 1 5000 м слабый снег 10/10
[Sc]
-5.0 -5.5 96 -8 -8 976.9 974.2 -5.3 -1.3
03 19.11 Ю 2 5000 м слабый снег 10/10
[Sc]
-5.0 -5.7 95 -10 -10 976.2 973.5
06 19.11 ЮЗ 3 20 км {снег} 9/3
[Sc Ac As]
-3.9 -6.2 84 -9 -8 975.5 972.8
09 19.11 ЮЗ 5 30 км 9/9
[Sc Ac As]
-3.4 -5.7 84 -10 -9 974.8 972.1
12 19.11 Ю 5 20 км слабый снег 10/3
[Sc Ac As]
-2.8 -6.1 78 -9 -9 974.4 971.7 -5.1 -2.7
15 19.11 ЮЗ 3 20 км {снег} 9/1
[Sc Ac As]
-4.2 -6.3 85 -9 -8 974.2 971.5
18 19.11 ЮВ 2 10 км слабый снег 9/9
[Sc]
-4.9 -6.4 89 -8 -8 974.8 972.1
21 19.11 З 2 4000 м слабый снег 9/9
[Sc]
-5.3 -6.6 91 -10 -10 976.1 973.4
00 20.11 З 1 6000 м слабый снег 10/10
[Sc]
-5.9 -7.0 92 -8 -8 977.6 974.9 -6.1 -2.7
03 20.11 СВ 2 6000 м слабый снег 10/10
[Sc]
-5.9 -7.0 92 -10 -10 979.4 976.7
06 20.11 СВ 7 3000 м слабый снег 10/10
[Sc]
-5.0 -6.1 92 -13 -13 982.1 979.4
09 20.11 СВ 5 5000 м слабый снег 10/10
[Sc]
-4.3 -5.8 89 -11 -11 984.4 981.7
12 20.11 СВ 6 8000 м слабый снег 10/10
[Sc]
-3.3 -4.7 90 -11 -11 986.0 983.3 -6.6 -3.2
15 20.11 СВ 6 20 км в посл. час снег 9/4
[Sc Ac As]
-3.6 -5.3 88 -11 -11 987.1 984.4
18 20.11 В 5 8000 м слабый снег 9/4
[Sc Ac As]
-4.2 -6.6 83 -11 -11 988.7 986.0
21 20.11 СВ 3 10 км {снег} 9/1
[Sc Ac As Ci sp]
-5.7 -8.7 79 -11 -11 989.6 986.9
00 21.11 СВ 8 10 км {снег} 9/9
[Sc]
-5.1 -7.8 81 -14 -14 990.1 987.4 -6.6 -3.2
03 21.11 СВ 5 20 км в посл. час снег 9/9
[Sc Ci sp]
-4.3 -7.1 81 -11 -11 990.8 988.1
06 21.11 СВ 4 10 км в посл. час снег 9/9
[Sc]
-2.8 -6.6 75 -8 -8 991.7 989.0
09 21.11 СВ 5 20 км 9/6
[Sc Ac As]
-2.1 -6.6 71 -8 -7 992.4 989.7
12 21.11 Ю 2 20 км 9/8
[Sc Ac As]
-1.0 -7.8 60 -4 -3 992.2 989.5 -5.8 -1.0
15 21.11 СВ 2 30 км 1/1
[Sc Ac As Ci fib]
-2.8 -6.3 77 -7 -4 991.6 988.9
18 21.11 В 3 30 км 1/1
[Sc Ac As]
-6.6 -10.1 76 -12 -12 991.2 988.4

 

Местоположение метеостанции Syowa (Антарктида): широта -69.00 долгота 39.58 высота над уровнем моря 21 м.

В архиве по умолчанию представлена погода в Syowa за последнюю неделю. Архивные данные за месяц целиком и за предыдущие месяцы, начиная с января 2011 года, Вы можете получить, выбрав интересующий диапазон дат из раскрывающегося списка и нажав кнопку "Ввод!".


*Определитесь, кто Вы:
робот инопланетянин человек

Внимание! Время в таблицах - всемирное. Для получения местного времени необходимо прибавить поправку, которая в Syowa равна 0 ч.

Смотрите также архив погоды в соседних городах и на ближайших метеорологических станциях:

Погода в Molodezhnaya (Антарктида) (297 км)
Погода в Relay Station (Антарктида) (570 км)

Пояснения к столбцам:

Ветер - указаны скорость ветра в м/с - средняя за 10 мин, порывы в срок и между сроками (в фигурных скобках) и направление, откуда дует ветер: С - северный, СВ - северо-восточный, В - восточный, ЮВ - юго-восточный, Ю - южный, ЮЗ - юго-западный, З - западный, СЗ - северо-западный.
Видимость - горизонтальная дальность видимости в метрах или километрах. При видимости от 1 до 10 км при отсутствии осадков обычно наблюдается дымка, при ухудшении видимости до 1 км и менее - туман. В сухую погоду видимость может ухудшаться дымом, пылью или мглою.
Явления - указаны атмосферные явления, наблюдавшиеся в срок или в последний час перед сроком; фигурными скобками обозначены явления, наблюдавшиеся между сроками (за 1-3 часа до срока); квадратными скобками обозначены град или гололедные отложения с указанием их диаметра в мм.
Облачность - указаны через наклонную черту общая и нижняя облачность в баллах и высота нижней границы облаков в метрах; квадратными скобками обозначены формы облаков: Ci - перистые, Cs - перисто-слоистые, Cc - перисто-кучевые, Ac - высококучевые, As - высокослоистые, Sc - слоисто-кучевые, Ns - слоисто-дождевые, Cu - кучевые, Cb - кучево-дождевые. Подробнее классификацию облаков см. в Атласе облаков (PDF).
T - Температура воздуха - температура, измеренная на высоте 2 м над землей.
Td - Температура точки росы - температура, при понижении до которой содержащийся в воздухе водяной пар достигнет насыщения.
f - Относительная влажность воздуха - влажноcть воздуха, измеренная на высоте 2 м над землей.
Te - Эффективная температура - температура, которую ощущает одетый по сезону человек в тени. Характеристика душности погоды. При расчете учитывается влияние влажности воздуха и скорости ветра на теплоощущения человека.
Tes - Эффективная температура на солнце - температура, которую ощущает человек, с поправкой на солнечный нагрев. Характеристика знойности погоды. Зависит от высоты солнца над горизонтом, облачности и скорости ветра. Ночью, в пасмурную погоду, а также при ветре 12 м/с и более поправка равна нулю.
P - Атмосферное давление - приведенное к уровню моря атмосферное давление.
Po - Атмосферное давление - измеренное на уровне метеостанции атмосферное давление.
Tmin - Минимальная температура - минимум температуры воздуха на высоте 2 м над землей.
Tmax - Максимальная температура - максимум температуры воздуха на высоте 2 м над землей.
R - Количество осадков - Количество выпавших осадков за период времени, мм. При наведении курсора мыши на число - период времени, за который выпало указанное количество осадков.
R24 - Количество осадков - Количество выпавших осадков за 24 часа, мм.
S - Снежный покров - Высота снежного покрова, см. При наведении курсора мыши на число - состояние снежного покрова и степень покрытия местности в баллах.